Location: Gönnheim
(49.4488°N, 8.2383°E)
Time: 06:36:56
(UTC+00:00)

Cosmos 1066 Rocket - Pass Details

Date: 19 May 2025
Orbit: 798 x 892 km, 81.2° (Epoch: 22 June)

Event Time Altitude Azimuth Distance (km) Brightness Sun altitude
Exits shadow 23:04:58 40° 168° (SSE) 1,236 4.5 -20.4°
Maximum altitude 23:06:59 70° 98° (E) 915 4.3 -20.5°
Drops below altitude 10° 23:12:43 10° 16° (NNE) 2,537 7.7 -20.5°
Sets 23:15:12 0° 14° (NNE) 3,490 8.8 -20.5°
